This demonstration page uses our WeatherBlox Daily Observations layout. Learn more.

Left ArrowRight Arrow

53.62937, 11.41316

Hourly Observations for July 26, 2022

Temp ( °F °C ) Dew Point ( °F °C ) Humidity (%) Winds ( mph kmh ) Pressure ( in mb ) Visibility ( mi km ) Precip ( " mm )
12:20 am 00:20 Mostly Cloudy 63 17 61 16 94 94 VRB 2 4 29.80 1009 30 48 N/A
12:50 am 00:50 Mostly Cloudy 63 17 61 16 94 94 VRB 3 6 29.80 1009 30 48 N/A
1:20 am 01:20 Mostly Cloudy 63 17 59 15 88 88 VRB 3 6 29.80 1009 30 48 N/A
1:50 am 01:50 Mostly Clear 61 16 59 15 94 94 SSW 3 6 29.80 1009 30 48 N/A
2:20 am 02:20 Mostly Cloudy 63 17 59 15 88 88 W 6 9 29.77 1008 30 48 N/A
2:50 am 02:50 Mostly Clear 63 17 59 15 88 88 W 8 13 29.80 1009 30 48 N/A
3:20 am 03:20 Partly Cloudy 61 16 59 15 94 94 W 6 9 29.80 1009 30 48 N/A
3:50 am 03:50 Mostly Clear 61 16 59 15 94 94 VRB 3 6 29.80 1009 30 48 N/A
4:20 am 04:20 Mostly Clear 61 16 59 15 94 94 VRB 5 7 29.80 1009 30 48 N/A
4:50 am 04:50 Mostly Clear 61 16 59 15 94 94 VRB 3 6 29.80 1009 30 48 N/A
5:20 am 05:20 Mostly Clear 61 16 59 15 94 94 VRB 3 6 29.80 1009 30 48 N/A
5:50 am 05:50 Mostly Cloudy 63 17 59 15 88 88 W 7 11 29.80 1009 30 48 N/A
6:20 am 06:20 Mostly Cloudy with Rain 61 16 61 16 100 100 VRB 5 7 29.80 1009 4 6 N/A
6:50 am 06:50 Mostly Cloudy with Light Showers 61 16 59 15 94 94 VRB 3 6 29.80 1009 30 48 N/A
7:20 am 07:20 Mostly Cloudy 63 17 61 16 94 94 VRB 2 4 29.80 1009 30 48 N/A
7:50 am 07:50 Partly Cloudy 63 17 61 16 94 94 W 6 9 29.80 1009 30 48 N/A
8:20 am 08:20 Partly Cloudy 64 18 61 16 88 88 W 8 13 29.82 1010 30 48 N/A
8:50 am 08:50 Mostly Cloudy 64 18 61 16 88 88 W 7 11 29.82 1010 30 48 N/A
9:20 am 09:20 Partly Cloudy 64 18 59 15 83 83 W 9 15 29.82 1010 30 48 N/A
9:50 am 09:50 Mostly Cloudy with Light Rain 61 16 59 15 94 94 NW 10 17 29.85 1011 30 48 N/A
10:20 am 10:20 Mostly Cloudy 64 18 57 14 78 78 NW 14 22 29.85 1011 30 48 N/A
10:50 am 10:50 Mostly Cloudy 64 18 55 13 73 73 NW 15 24 29.85 1011 30 48 N/A
11:20 am 11:20 Mostly Cloudy 64 18 55 13 73 73 NW 15 24 29.88 1012 30 48 N/A
11:50 am 11:50 Mostly Cloudy 66 19 54 12 64 64 WNW 13 20 29.88 1012 30 48 N/A
12:20 pm 12:20 Mostly Cloudy 66 19 54 12 64 64 WNW 15 24 29.88 1012 30 48 N/A
12:50 pm 12:50 Mostly Cloudy 68 20 54 12 60 60 WNW 13 20 29.91 1013 30 48 N/A
1:20 pm 13:20 Mostly Cloudy 68 20 48 9 49 49 WNW 15 24 29.91 1013 30 48 N/A
1:50 pm 13:50 Partly Cloudy 66 19 50 10 56 56 WNW 15 24 29.91 1013 30 48 N/A
2:20 pm 14:20 Partly Cloudy 66 19 50 10 56 56 WNW 13 20 29.91 1013 30 48 N/A
2:50 pm 14:50 Partly Cloudy 66 19 46 8 49 49 WNW 15 24 29.91 1013 30 48 N/A
3:20 pm 15:20 Partly Cloudy 68 20 45 7 43 43 WNW 14 22 29.94 1014 30 48 N/A
3:50 pm 15:50 Mostly Sunny 68 20 46 8 46 46 WNW 13 20 29.94 1014 7 11 N/A
4:20 pm 16:20 Mostly Sunny 68 20 46 8 46 46 W 10 17 29.94 1014 7 11 N/A
4:50 pm 16:50 Mostly Sunny 66 19 46 8 49 49 WNW 13 20 29.94 1014 7 11 N/A
5:20 pm 17:20 Mostly Sunny 68 20 48 9 49 49 W 13 20 29.94 1014 7 11 N/A
5:50 pm 17:50 Mostly Sunny 66 19 46 8 49 49 WNW 14 22 29.97 1015 30 48 N/A
6:20 pm 18:20 Mostly Sunny 66 19 46 8 49 49 WNW 13 20 29.97 1015 30 48 N/A
6:50 pm 18:50 Mostly Sunny 64 18 48 9 56 56 W 12 19 29.97 1015 7 11 N/A
7:20 pm 19:20 Mostly Sunny 64 18 48 9 56 56 WNW 14 22 29.97 1015 30 48 N/A
7:50 pm 19:50 Mostly Sunny 63 17 45 7 52 52 WNW 14 22 29.97 1015 30 48 N/A
8:20 pm 20:20 Mostly Sunny 63 17 46 8 56 56 WNW 9 15 29.97 1015 30 48 N/A
8:50 pm 20:50 Mostly Sunny 61 16 45 7 55 55 WNW 7 11 29.97 1015 7 11 N/A
9:20 pm 21:20 Mostly Cloudy 61 16 46 8 59 59 W 7 11 30.00 1016 30 48 N/A
9:50 pm 21:50 Mostly Cloudy 59 15 46 8 63 63 WNW 6 9 30.00 1016 30 48 N/A
10:20 pm 22:20 Mostly Clear 57 14 48 9 72 72 WNW 6 9 30.00 1016 30 48 N/A
10:50 pm 22:50 Mostly Cloudy 57 14 48 9 72 72 W 5 7 30.00 1016 30 48 N/A
11:20 pm 23:20 Partly Cloudy 55 13 48 9 77 77 W 5 7 30.00 1016 30 48 N/A
11:50 pm 23:50 Mostly Clear 55 13 48 9 77 77 WSW 5 7 30.00 1016 30 48 N/A

Powered by AerisWeather